Location: Maccacari
(45.1333°N, 11.1333°E)
Time: 01:54:28
(UTC+00:00)

Tiros 1 despin weight - Pass Details

Date: 23 January 2021
Orbit: 593 x 642 km, 48.2° (Epoch: 07 March)

Event Time Altitude Azimuth Distance (km) Brightness Sun altitude
Rises 18:21:10 0° 289° (WNW) 2,854 ? -22.9°
Reaches altitude 10° 18:23:29 10° 290° (WNW) 1,943 ? -23.3°
Enters shadow 18:27:52 87° 289° (WNW) 602 ? -24.0°
Maximum altitude 18:27:56 90° 216° (SW) 601 - -24.0°
Drops below altitude 10° 18:32:21 10° 111° (ESE) 1,921 - -24.8°
Sets 18:34:37 0° 112° (ESE) 2,819 - -25.2°
